Liste des engagé(e)s
Classement
PDF
   
         
   
 
Pos N° Nom Prénom Pays Temps Ecart Pl. Cat. Pl. Sexe Club
1 72 BRUCHON Clément 00:23:09 1 CA 1 M JSP REGION ST JEANNAISE
2 205 GENIN Corentin 00:23:14 05 2 CA 2 M JSP ST SAVIN
3 572 CHANTRE Pierre 00:24:14 01:05 3 CA 3 M JSP LA MURE
4 804 IJEL-HERMANN Franco 00:24:24 01:15 4 CA 4 M JSP CANTON DE VIF
5 75 LACROIX Thomas 00:25:14 02:05 5 CA 5 M JSP REGION ST JEANNAISE
6 71 ROCHE Louis 00:25:17 02:08 6 CA 6 M JSP REGION ST JEANNAISE
7 170 THIBAULT Clément 00:25:36 02:27 7 CA 7 M JSP BELLEDONNE DOMENE
8 505 BEN LAKDHAR Mohamed-Seghir 00:25:46 02:37 8 CA 8 M JSP CHASSE SUR RHONE
9 681 CALANDRE Thomas 00:25:46 02:37 9 CA 9 M JSP ROUSSILLON
10 17 BILLOTET Alexis 00:25:48 02:39 10 CA 10 M JSP VIENNE
11 869 RINGOT Alexis 00:25:51 02:42 11 CA 11 M JSP VINAY
12 567 GANDY Alban 00:25:51 02:42 12 CA 12 M JSP VAL DU VER
13 803 DUSSERT-ROSSET Tristan 00:25:57 02:48 13 CA 13 M JSP CANTON DE VIF
14 577 PRAT Théo 00:26:10 03:01 14 CA 14 M JSP LA MURE
15 684 WATCHEL Thomas 00:26:14 03:05 15 CA 15 M JSP ROUSSILLON
16 356 VEYRET-ABRAN Adrien 00:26:15 03:06 16 CA 16 M JSP ST EGREVE
17 801 DUFOUR Mathis 00:26:27 03:18 17 CA 17 M JSP CANTON DE VIF
18 146 BREDA Thibaud 00:26:37 03:28 18 CA 18 M JSP BELLEDONNE DOMENE
19 210 CUCHERAT Romain 00:26:38 03:29 19 CA 19 M JSP ST SAVIN
20 18 PAPA Alexandre 00:26:46 03:37 20 CA 20 M JSP VIENNE
21 19 PARIS Maxence 00:26:47 03:38 21 CA 21 M JSP VIENNE
22 78 GLASSON Baptiste 00:26:56 03:47 22 CA 22 M JSP REGION ST JEANNAISE
23 878 BUCCHIONI Luca 00:27:00 03:51 23 CA 23 M JSP VAL DU VER
24 16 BEDOIN Samuel 00:27:09 04:00 24 CA 24 M JSP VIENNE
25 49 MARTIN Maxime 00:27:09 04:00 25 CA 25 M JSP SATOLAS ET BONCE
26 772 CAILLON Samuel 00:27:15 04:06 26 CA 26 M JSP MONTALIEU
27 350 CONTOZ Emilien 00:27:17 04:08 27 CA 27 M JSP ST EGREVE
28 491 BUTTY Ludovic 00:27:17 04:08 28 CA 28 M JSP LA MURE
29 367 ROUX Guillaume 00:27:26 04:17 29 CA 29 M JSP MOIRANS
30 74 LACROIX Mathieu 00:27:32 04:23 30 CA 30 M JSP REGION ST JEANNAISE
31 728 CHIANALE David 00:27:38 04:29 31 CA 31 M JSP OYTIER SEPTEME
32 588 SADANNE Valentin 00:27:40 04:31 32 CA 32 M JSP VAL DU VER
33 253 MULATON Maxime 00:27:54 04:45 33 CA 33 M JSP VIENNE
34 207 MAJRI Malek 00:28:02 04:53 34 CA 34 M JSP ST SAVIN
35 352 GIANFORCARO Adrien 00:28:04 04:55 35 CA 35 M JSP ST EGREVE
36 818 GALIANO Armand 00:28:06 04:57 36 CA 36 M JSP PORTE DE CHARTREUSE
37 797 CLAVERIA Vincent 00:28:07 04:58 37 CA 37 M JSP CANTON DE VIF
38 711 ABEILLE Romain 00:28:10 05:01 38 CA 38 M JSP TERRES FROIDES
39 289 PICARD Morgan 00:28:13 05:04 39 CA 39 M JSP TREPT
40 727 CALVIERA Antoine 00:28:13 05:04 40 CA 40 M JSP OYTIER SEPTEME
41 292 VILLARD Lucas 00:28:20 05:11 41 CA 41 M JSP TREPT
42 282 CONESA Thibault 00:28:21 05:12 42 CA 42 M JSP TREPT
43 838 VIALATTE Thomas 00:28:21 05:12 43 CA 43 M JSP PORTE DE CHARTREUSE
44 76 ABEL-COINDOZ Benoit 00:28:23 05:14 44 CA 44 M JSP REGION ST JEANNAISE
45 411 BERGER Kelian 00:28:23 05:14 45 CA 45 M JSP ST ETIENNE DE ST GEOIRS
46 169 SIBUE Florian 00:28:24 05:15 46 CA 46 M JSP BELLEDONNE DOMENE
47 211 GUTTIN-LOMBARD Yohan 00:28:54 05:45 47 CA 47 M JSP ST SAVIN
48 879 CRISYIN Geoffroy 00:29:08 05:59 48 CA 48 M JSP VAL DU VER
49 314 SAAD Alexandre 00:29:13 06:04 49 CA 49 M JSP ST MARCELLIN
50 730 ROJON Florian 00:29:23 06:14 50 CA 50 M JSP OYTIER SEPTEME
51 212 VILQUIN Lucas 00:29:37 06:28 51 CA 51 M JSP ST SAVIN
52 877 ALCARAZ Theo 00:29:44 06:35 52 CA 52 M JSP VAL DU VER
53 77 LAPORTE Antoine 00:29:45 06:36 53 CA 53 M JSP REGION ST JEANNAISE
54 351 DESCHAMPS Simon 00:29:48 06:39 54 CA 54 M JSP ST EGREVE
55 162 PILLITERRI Luca 00:29:50 06:41 55 CA 55 M JSP BELLEDONNE DOMENE
56 613 BORNEY Maxime 00:30:12 07:03 56 CA 56 M JSP DES DEUX GUIERS
57 288 OLMO Tom 00:30:28 07:19 57 CA 57 M JSP TREPT
58 368 ROUX-SIBILON Tanguy 00:30:28 07:19 58 CA 58 M JSP MOIRANS
59 20 PINNA Luigi 00:30:29 07:20 59 CA 59 M JSP VIENNE
60 287 MELKONIAN Jules 00:30:30 07:21 60 CA 60 M JSP TREPT
61 290 RAJAY Sofyan 00:31:05 07:56 61 CA 61 M JSP TREPT
62 515 GRAVELAIS Clément 00:31:15 08:06 62 CA 62 M JSP VINAY
63 683 SENER Enis 00:31:21 08:12 63 CA 63 M JSP ROUSSILLON
64 73 PELLET Valentin 00:31:23 08:14 64 CA 64 M JSP REGION ST JEANNAISE
65 407 HANIFI Mickael 00:31:29 08:20 65 CA 65 M JSP ST ETIENNE DE ST GEOIRS
66 802 HUMBERT Mathias 00:31:31 08:22 66 CA 66 M JSP CANTON DE VIF
67 415 MULLER Hugo 00:31:51 08:42 67 CA 67 M JSP ST ETIENNE DE ST GEOIRS
68 357 ZANGARA Kenzo 00:31:57 08:48 68 CA 68 M JSP ST EGREVE
69 206 ZAMPARUTTI Julien 00:31:58 08:49 69 CA 69 M JSP ST SAVIN
70 285 GOY Julien 00:32:00 08:51 70 CA 70 M JSP TREPT
71 507 ROSSIGNOL Valentin 00:32:17 09:08 71 CA 71 M JSP CHASSE SUR RHONE
72 770 MOREN-FAUVIN Luka 00:32:38 09:29 72 CA 72 M JSP MONTALIEU
73 126 AMOURI Adam 00:32:51 09:42 73 CA 73 M JSP DENT DE CROLLES
74 771 CALPETARD Mathieu 00:32:54 09:45 74 CA 74 M JSP MONTALIEU
75 516 IZZO Thibaut 00:32:54 09:45 75 CA 75 M JSP VINAY
76 799 GAGGIO Anthony 00:33:22 10:13 76 CA 76 M JSP CANTON DE VIF
77 209 DEWULF Nicolas 00:33:30 10:21 77 CA 77 M JSP ST SAVIN
78 832 SARAT Yannick 00:33:32 10:23 78 CA 78 M JSP PORTE DE CHARTREUSE
79 116 NIGRA Alexis 00:34:07 10:58 79 CA 79 M JSP VIZILLE
80 414 MAXOR Hugo 00:34:50 11:41 80 CA 80 M JSP ST ETIENNE DE ST GEOIRS
81 140 PINCHOT Maxime 00:34:52 11:43 81 CA 81 M JSP DENT DE CROLLES
82 506 MATHIEU Lucas 00:35:01 11:52 82 CA 82 M JSP CHASSE SUR RHONE
83 125 ADELMANN Kris 00:35:03 11:54 83 CA 83 M JSP DENT DE CROLLES
84 614 DAVY Jérémy 00:35:12 12:03 84 CA 84 M JSP DES DEUX GUIERS
85 354 REYNAUD Quentin 00:35:25 12:16 85 CA 85 M JSP ST EGREVE
86 369 SOLLIMA Morgan 00:35:26 12:17 86 CA 86 M JSP MOIRANS
87 349 BLANC-TRANCHANT LoĂŻc 00:35:28 12:19 87 CA 87 M JSP ST EGREVE
88 840 GIAMMELLUCA Thibaud 00:35:31 12:22 88 CA 88 M JSP PORTE DE CHARTREUSE
89 409 MANET Alban 00:36:00 12:51 89 CA 89 M JSP ST ETIENNE DE ST GEOIRS
90 284 GAY Clément 00:36:52 13:43 90 CA 90 M JSP TREPT
91 412 BRUN BARONNAT Mathéo 00:37:50 14:41 91 CA 91 M JSP ST ETIENNE DE ST GEOIRS
92 283 DELCROIX Axel 00:38:11 15:02 92 CA 92 M JSP TREPT
93 114 PONCET Arno 00:39:31 16:22 93 CA 93 M JSP VIZILLE
94 355 SAHRAOUI Gabriel 00:39:31 16:22 94 CA 94 M JSP ST EGREVE
95 147 DALBON-GOULAZ Dorian 00:40:54 17:45 95 CA 95 M JSP BELLEDONNE DOMENE
  Cross de la Sainte-Barbe - CADETS M - Chrono Perf Event 2017
 
Nombre ou lettres (3 minimum)
Classement    
Filtre :
Rang :